[[{"header":{"parameterUnit":"m.s-1","parameterCategory":1,"la1":30.2991,"la2":30.254,"lo1":-89.0895,"lo2":-89.0444,"dy":0.0017,"dx":0.0017,"nx":28,"ny":28,"refTime":"2025-04-26T03:00:00:Z","depth":0,"parameterNumber":2,"parameterNumberName":"U-component_of_WINDS"},"data":[0,0,0,0,0,0,0,0,0,0,0,0,0,0,0,0,0,0,0,0,0,0,0,0,0,0,0,0,0,0,0,0,0,0,0,0,0,0,0,0,0,0,0,0,0,0,0,0,0,0,0,0,0,0,0,0,0,0,0.2038,0.2039,0,0.2124,0.2125,0.2126,0.2156,0.2156,0.2156,0.2155,0.2243,0.2245,0.2248,0,0,0,0,0,0,0,0,0,0,0,0,0,0.19,0.1902,0.2038,0.2039,0.204,0.2124,0.2125,0.2126,0.2156,0.2156,0.2156,0.2155,0.2242,0.2245,0.2248,0,0,0,0,0,0,0,0,0,0,0,0,0,0.197,0.1903,0.2038,0.2066,0.2069,0.2124,0.2125,0.2127,0.2156,0.2156,0.2156,0.2155,0.2241,0.2245,0.2248,0.2282,0,0,0.226,0.2262,0,0,0,0,0,0,0,0,0.1966,0.1975,0.206,0.2064,0.2068,0.2129,0.2108,0.2179,0.2157,0.2123,0.2155,0.2155,0.2205,0.2212,0.2229,0.2286,0.229,0.2261,0.2263,0.2265,0.2266,0,0,0,0,0,0,0,0.1961,0.1972,0.2072,0.2062,0.2066,0.2073,0.2083,0.2122,0.2166,0.2126,0.2128,0.2138,0.2207,0.2225,0.2231,0.2291,0.2261,0.2264,0.2267,0.2268,0.2379,0.238,0,0,0,0,0,0,0.1952,0.1967,0.2069,0.2075,0.2015,0.2076,0.2087,0.211,0.2165,0.2173,0.2139,0.2139,0.2219,0.2227,0.2235,0.2277,0.2265,0.2268,0.2271,0.2379,0.2379,0.238,0,0,0,0,0,0,0.1949,0.1961,0.2066,0.2022,0.2036,0.2079,0.2105,0.2112,0.213,0.2175,0.2183,0.2149,0.2219,0.2229,0.227,0.2281,0.227,0.2274,0.2378,0.2379,0.238,0.2363,0,0,0,0,0,0,0.1944,0.1959,0.1973,0.2022,0.2038,0.21,0.2105,0.2114,0.2137,0.2139,0.2187,0.2194,0.2219,0.2264,0.2274,0.2286,0.2277,0.2377,0.2378,0.238,0.2363,0.2363,0.2363,0,0,0,0,0,0.1939,0.1964,0.1973,0.1985,0.2056,0.2101,0.211,0.2138,0.2137,0.2151,0.218,0.2193,0.2278,0.2268,0.2279,0.2293,0.2377,0.2378,0.2379,0.2362,0.2363,0.2363,0,0,0,0,0,0,0.1915,0.1971,0.1982,0.2024,0.2057,0.2106,0.2124,0.2138,0.2172,0.2172,0.2206,0.2216,0.2254,0.2278,0.2265,0.2328,0.2328,0.2332,0.2311,0.2312,0.2312,0.2306,0.228,0,0,0,0,0,0.1915,0.1947,0.1994,0.2026,0.2043,0.208,0.2101,0.212,0.2156,0.217,0.2202,0.2236,0.2271,0.2293,0.2327,0.2366,0.2377,0.2381,0.2381,0.2381,0.2384,0.2406,0.2408,0.2385,0.2385,0.2385,0,0,0.1914,0.1949,0.1967,0.2022,0.2051,0.2083,0.2092,0.2126,0.215,0.2175,0.2216,0.224,0.2281,0.232,0.234,0.2341,0.2393,0.2383,0.2383,0.2386,0.2408,0.241,0.2412,0.2385,0.2385,0.2385,0,0,0.193,0.1959,0.1989,0.2017,0.206,0.2085,0.2092,0.2138,0.2155,0.2197,0.2216,0.2245,0.2304,0.2332,0.2353,0.2379,0.2392,0.2389,0.2391,0.2412,0.2414,0.2415,0.2424,0.2427,0.2391,0.2391,0.2391,0,0.1923,0.1973,0.2003,0.2035,0.2059,0.2083,0.2114,0.2139,0.2191,0.2206,0.2207,0.2281,0.231,0.2356,0.2362,0.2379,0.2388,0.2383,0.2411,0.2413,0.2415,0.2424,0.2427,0.2391,0.2391,0.2391,0.2391,0,0.1963,0.1997,0.2016,0.2065,0.2091,0.2122,0.2156,0.2178,0.2195,0.2219,0.226,0.2296,0.2337,0.235,0.2366,0.2399,0.2398,0.2405,0.2406,0.2416,0.2425,0.2428,0.239,0.239,0.239,0.239,0,0,0.1966,0.2031,0.2037,0.206,0.2108,0.2135,0.2167,0.2208,0.2226,0.2261,0.2288,0.2337,0.2343,0.2368,0.2387,0.2406,0.2423,0.241,0.2411,0.2411,0.246,0.2455,0.2458,0.2432,0.2432,0.2433,0.2457,0,0.1987,0.2046,0.2074,0.212,0.2152,0.2175,0.2203,0.2235,0.2259,0.2289,0.2315,0.2349,0.2354,0.2369,0.2388,0.2417,0.2433,0.2415,0.2457,0.2458,0.2446,0.2463,0.2458,0.2478,0.246,0.2461,0.2461,0,0.202,0.2055,0.2105,0.2149,0.2163,0.2188,0.2227,0.2256,0.2293,0.2309,0.2336,0.2355,0.2389,0.2387,0.2434,0.2421,0.244,0.2457,0.2458,0.2463,0.246,0.2468,0.2486,0.2489,0.2467,0.2467,0.2466,0,0.2017,0.2076,0.2113,0.2132,0.2185,0.2201,0.2224,0.2261,0.2283,0.2318,0.2332,0.237,0.239,0.2419,0.2447,0.2443,0.2491,0.2492,0.2505,0.2504,0.2514,0.2513,0.2535,0.2526,0.2526,0.2526,0.2526,0,0.2038,0.2067,0.2112,0.2135,0.2169,0.22,0.2232,0.2256,0.2288,0.2316,0.2338,0.2364,0.24,0.2429,0.2451,0.2487,0.2496,0.2509,0.2515,0.2508,0.2506,0.252,0.2519,0.2527,0.2527,0.2527,0.2527,0,0.204,0.2071,0.2114,0.216,0.2172,0.2195,0.2235,0.2257,0.2282,0.2317,0.2326,0.2365,0.2401,0.2432,0.2479,0.2494,0.2531,0.2538,0.2518,0.2521,0.2532,0.2531,0.2564,0.257,0.2557,0.2557,0.2557,0,0.2051,0.2075,0.2124,0.2144,0.2166,0.2199,0.2222,0.2253,0.2276,0.232,0.2337,0.2375,0.2407,0.2463,0.2495,0.2531,0.2539,0.2548,0.2545,0.2536,0.2539,0.2537,0.2539,0.2548,0.2548,0.2548,0.2548,0,0.2068,0.2082,0.2115,0.2153,0.218,0.2211,0.2243,0.2258,0.2295,0.232,0.2357,0.2382,0.243,0.2467,0.2507,0.253,0.2545,0.2549,0.2554,0.2546,0.2534,0.2541,0.2518,0.2548,0.2548,0.2548,0.2548,0.2548,0.2075,0.2097,0.2134,0.217,0.2197,0.2226,0.225,0.2277,0.2309,0.2351,0.2367,0.2405,0.2441,0.2496,0.2519,0.2549,0.2551,0.2558,0.256,0.2561,0.256,0.2529,0.2556,0.2556,0.2556,0.2556,0.2556,0,0.2093,0.2118,0.215,0.2194,0.2222,0.2234,0.227,0.2292,0.2325,0.2358,0.2388,0.2431,0.2467,0.2501,0.2539,0.2556,0.2564,0.2565,0.2564,0.2569,0.2556,0.2548,0.2558,0.2558,0.2558,0.2558,0.2558,0.2558,0.2105,0.2142,0.2161,0.2211,0.2236,0.2274,0.2293,0.232,0.2346,0.2392,0.2422,0.2445,0.2478,0.2518,0.2551,0.256,0.2573,0.2572,0.2583,0.257,0.257,0.2569,0.2562,0.2574,0.2574,0.2593,0.2593,0.2593]},{"header":{"parameterUnit":"m.s-1","parameterCategory":1,"la1":30.2991,"la2":30.254,"lo1":-89.0895,"lo2":-89.0444,"dy":0.0017,"dx":0.0017,"nx":28,"ny":28,"refTime":"2025-04-26T03:00:00:Z","depth":0,"parameterNumber":3,"parameterNumberName":"V-component_of_WINDS"},"data":[0,0,0,0,0,0,0,0,0,0,0,0,0,0,0,0,0,0,0,0,0,0,0,0,0,0,0,0,0,0,0,0,0,0,0,0,0,0,0,0,0,0,0,0,0,0,0,0,0,0,0,0,0,0,0,0,0,0,2.9642,2.9641,0,2.9583,2.9582,2.9581,2.95,2.9499,2.9498,2.9496,2.9434,2.9433,2.9433,0,0,0,0,0,0,0,0,0,0,0,0,0,2.9684,2.9684,2.9642,2.9641,2.9641,2.9583,2.9582,2.9581,2.9501,2.9499,2.9497,2.9496,2.9434,2.9433,2.9433,0,0,0,0,0,0,0,0,0,0,0,0,0,2.965,2.9684,2.9642,2.9594,2.9589,2.9583,2.9582,2.9581,2.9501,2.9499,2.9497,2.9495,2.9434,2.9434,2.9433,2.947,0,0,2.9431,2.9431,0,0,0,0,0,0,0,0,2.9652,2.9648,2.9601,2.9597,2.9591,2.9547,2.9574,2.9544,2.9501,2.9534,2.9496,2.9494,2.9473,2.9469,2.9462,2.9467,2.9464,2.9431,2.9431,2.943,2.943,0,0,0,0,0,0,0,2.9654,2.965,2.9618,2.9601,2.9595,2.9574,2.9567,2.9568,2.9516,2.9531,2.9525,2.9519,2.947,2.9463,2.946,2.9463,2.9431,2.943,2.943,2.943,2.9494,2.9496,0,0,0,0,0,0,2.9664,2.9653,2.962,2.9617,2.9617,2.9575,2.9567,2.9563,2.9515,2.9506,2.9521,2.9516,2.9465,2.9461,2.9458,2.9497,2.943,2.943,2.9429,2.9492,2.9495,2.9497,0,0,0,0,0,0,2.9665,2.9662,2.9623,2.9633,2.9627,2.9576,2.9573,2.9563,2.9556,2.9508,2.9498,2.9524,2.9463,2.9459,2.9467,2.9494,2.943,2.9429,2.949,2.9493,2.9496,2.9578,0,0,0,0,0,0,2.9667,2.9663,2.9677,2.9634,2.9626,2.9634,2.9574,2.9563,2.9556,2.9548,2.9508,2.9499,2.9461,2.9469,2.9467,2.9492,2.9428,2.9487,2.9491,2.9495,2.9572,2.9583,2.9592,0,0,0,0,0,2.9669,2.9702,2.9678,2.9674,2.9643,2.9636,2.9631,2.9588,2.9558,2.9571,2.954,2.95,2.9492,2.947,2.9467,2.9493,2.9485,2.949,2.9495,2.9568,2.9581,2.9592,0,0,0,0,0,0,2.9749,2.9695,2.9668,2.9689,2.9668,2.9622,2.9638,2.9603,2.959,2.9583,2.9529,2.952,2.9536,2.9515,2.9492,2.9526,2.9482,2.9487,2.9539,2.9551,2.9561,2.9566,2.9428,0,0,0,0,0,2.9769,2.9768,2.9721,2.9744,2.9735,2.9689,2.9684,2.9652,2.9628,2.9618,2.9588,2.9565,2.9557,2.9553,2.9543,2.9569,2.9559,2.9585,2.9595,2.9603,2.9608,2.962,2.9631,2.9512,2.9512,2.9512,0,0,2.981,2.9781,2.9784,2.9759,2.9739,2.9739,2.9681,2.9684,2.9683,2.9618,2.9625,2.9602,2.9573,2.9591,2.9597,2.9574,2.9638,2.9609,2.9617,2.9616,2.9626,2.9637,2.9647,2.9515,2.9515,2.9514,0,0,2.9885,2.9863,2.988,2.9861,2.9831,2.98,2.9804,2.9764,2.9747,2.9753,2.9704,2.9702,2.9689,2.9671,2.966,2.9728,2.9691,2.9726,2.9779,2.9791,2.9801,2.9809,2.9833,2.9843,2.9731,2.9731,2.9731,0,2.994,2.9939,2.9892,2.9898,2.9889,2.983,2.9846,2.983,2.9799,2.9793,2.9768,2.9751,2.9727,2.974,2.9757,2.975,2.9752,2.9731,2.9803,2.9811,2.9818,2.984,2.985,2.9736,2.9735,2.9735,2.9734,0,3.0008,3.0008,3.0025,2.9997,2.9989,3.0,2.9955,2.9952,2.9921,2.9893,2.9899,2.9869,2.9852,2.9852,2.9822,2.986,2.9847,2.9813,2.9769,2.9834,2.9855,2.9863,2.9742,2.9741,2.9739,2.9738,0,0,3.0132,3.0078,3.0085,3.0072,3.0035,3.0034,3.0042,3.0026,3.0025,3.0005,3.001,3.0001,2.997,2.9957,2.9924,2.9935,2.9991,2.9899,2.9898,2.9918,3.0032,3.0057,3.0068,2.9966,2.9967,2.9969,3.0034,0,3.0201,3.0212,3.017,3.0192,3.0192,3.0136,3.0143,3.0121,3.0095,3.009,3.006,3.0054,3.0013,3.0005,3.0014,2.9983,3.0013,2.9977,2.997,2.997,2.9979,3.0079,3.0106,3.0169,3.0042,3.0043,3.0044,0,3.0282,3.0268,3.029,3.0252,3.025,3.0257,3.0239,3.0235,3.0209,3.0188,3.0175,3.0136,3.0141,3.0098,3.0104,3.008,3.0074,3.0059,3.006,3.0058,3.0011,3.0079,3.0188,3.0198,3.0056,3.0055,3.0054,0,3.0371,3.0356,3.0368,3.0358,3.0314,3.032,3.0302,3.0274,3.0267,3.025,3.0245,3.023,3.0221,3.0209,3.0168,3.014,3.0178,3.0132,3.0161,3.0162,3.0171,3.0171,3.0281,3.0168,3.0168,3.0168,3.0167,0,3.0452,3.0468,3.0407,3.0414,3.043,3.0382,3.0399,3.0375,3.035,3.0351,3.0301,3.0303,3.0248,3.0244,3.0211,3.022,3.0216,3.02,3.0191,3.0205,3.0207,3.02,3.0195,3.017,3.0169,3.0169,3.0169,0,3.0554,3.0514,3.0523,3.048,3.047,3.0484,3.0447,3.0452,3.0422,3.0424,3.0422,3.0375,3.0367,3.0324,3.0306,3.0284,3.0305,3.0287,3.0314,3.0309,3.034,3.0338,3.045,3.0462,3.0341,3.0343,3.0344,0,3.0608,3.0619,3.0578,3.0576,3.056,3.0556,3.0549,3.0501,3.0496,3.0467,3.0475,3.0463,3.0451,3.0441,3.0405,3.0391,3.0372,3.0413,3.037,3.0383,3.0373,3.0373,3.0374,3.0422,3.0423,3.0425,3.0426,0,3.0709,3.0689,3.068,3.0666,3.0658,3.0644,3.0627,3.0627,3.0574,3.057,3.0562,3.0553,3.0535,3.0524,3.0504,3.0484,3.0446,3.0439,3.0445,3.046,3.0475,3.0467,3.034,3.0437,3.0436,3.0435,3.0435,3.0434,3.0788,3.0796,3.0768,3.0761,3.0743,3.0728,3.073,3.0701,3.0694,3.0676,3.0648,3.0644,3.0616,3.0585,3.0569,3.0564,3.0542,3.0551,3.0553,3.0556,3.0563,3.0476,3.056,3.056,3.0559,3.0559,3.0559,0,3.0887,3.0867,3.086,3.0838,3.0832,3.0797,3.0776,3.0773,3.0771,3.0749,3.0738,3.0729,3.0718,3.0681,3.0666,3.067,3.0652,3.0667,3.0667,3.0663,3.0583,3.058,3.0682,3.0682,3.0682,3.0682,3.0682,3.0682,3.0938,3.0948,3.0925,3.0926,3.0905,3.0901,3.0892,3.0878,3.086,3.0852,3.0843,3.0819,3.0791,3.0774,3.0762,3.0751,3.0748,3.077,3.0753,3.068,3.0668,3.0657,3.0653,3.0769,3.0769,3.0833,3.0833,3.0834]}]]